This is the latest recevied weather packets stored in our database for station/object JS1SZZ-13. If no packets are shown the sender has not sent any weather packets the latest 10 day(s).
| Time | Temp. | Humidity | Pressure | Rain* | Wind** | Luminosity | Snow |
|---|---|---|---|---|---|---|---|
| 1777100443 | 17.22° C | 43% | 1017.5 hPa | 0 mm | - | - | - |
| 1777099543 | 17.22° C | 46% | 1017.3 hPa | 0 mm | - | - | - |
| 1777098644 | 17.22° C | 45% | 1017.6 hPa | 0 mm | - | - | - |
| 1777097744 | 17.22° C | 46% | 1017.5 hPa | 0 mm | - | - | - |
| 1777096843 | 17.22° C | 46% | 1017.5 hPa | 0 mm | - | - | - |
| 1777095943 | 17.78° C | 43% | 1017.5 hPa | 0 mm | - | - | - |
| 1777095043 | 17.78° C | 45% | 1017.6 hPa | 0 mm | - | - | - |
| 1777094142 | 17.22° C | 47% | 1017.6 hPa | 0 mm | - | - | - |
| 1777093244 | 17.78° C | 46% | 1018 hPa | 0 mm | - | - | - |
| 1777092603 | 17.22° C | 85% | 1017.9 hPa | 0 mm | - | - | - |
| 1777092343 | 17.22° C | 44% | 1017.9 hPa | 0 mm | - | - | - |
| 1777091442 | 16.67° C | 44% | 1018.1 hPa | 0 mm | - | - | - |
| 1777090544 | 16.67° C | 45% | 1018.2 hPa | 0 mm | - | - | - |
| 1777089643 | 16.67° C | 42% | 1018.1 hPa | 0 mm | - | - | - |
| 1777088742 | 17.78° C | 42% | 1018.2 hPa | 0 mm | - | - | - |
| 1777087844 | 17.78° C | 47% | 1018.3 hPa | 0 mm | - | - | - |
| 1777086943 | 17.78° C | 43% | 1018.5 hPa | 0 mm | - | - | - |
| 1777086043 | 17.22° C | 50% | 1018.3 hPa | 0 mm | - | - | - |
| 1777085142 | 16.67° C | 43% | 1018.2 hPa | 0 mm | - | - | - |
| 1777084244 | 16.67° C | 48% | 1018.3 hPa | 0 mm | - | - | - |
| 1777083343 | 16.67° C | 49% | 1018.1 hPa | 0 mm | - | - | - |
| 1777082442 | 16.11° C | 41% | 1018.3 hPa | 0 mm | - | - | - |
| 1777081543 | 16.67° C | 45% | 1018.6 hPa | 0 mm | - | - | - |
| 1777080644 | 16.67° C | 49% | 1018.4 hPa | 0 mm | - | - | - |
| 1777079743 | 15.56° C | 48% | 1018.5 hPa | 0 mm | - | - | - |
* Rain latest hour (hover to see other rain measurements)
** Current wind speed in m/s (hover to see current wind gust speed)